This is the latest recevied weather packets stored in our database for station/object N5RPG. If no packets are shown the sender has not sent any weather packets the latest 10 day(s).
| Time | Temp. | Humidity | Pressure | Rain* | Wind** | Luminosity | Snow |
|---|---|---|---|---|---|---|---|
| 1778190001 | 22.78° C | 56% | 1016.2 hPa | 0 mm | - | 408 W/m² | - |
| 1778189698 | 22.78° C | 56% | 1016.4 hPa | 0 mm | - | 288 W/m² | - |
| 1778189395 | 22.78° C | 57% | 1016.5 hPa | 0 mm | - | 617 W/m² | - |
| 1778189090 | 22.22° C | 58% | 1016.4 hPa | 0 mm | - | 493 W/m² | - |
| 1778188788 | 21.67° C | 57% | 1016.6 hPa | 0 mm | - | 107 W/m² | - |
| 1778188484 | 21.67° C | 59% | 1016.6 hPa | 0 mm | - | 272 W/m² | - |
| 1778188181 | 22.22° C | 59% | 1016.6 hPa | 0 mm | - | 227 W/m² | - |
| 1778187878 | 22.22° C | 58% | 1016.8 hPa | 0 mm | - | 215 W/m² | - |
| 1778187575 | 22.78° C | 57% | 1016.8 hPa | 0 mm | - | 230 W/m² | - |
| 1778187272 | 22.22° C | 56% | 1016.8 hPa | 0 mm | - | 279 W/m² | - |
| 1778186968 | 21.67° C | 57% | 1017 hPa | 0 mm | - | 336 W/m² | - |
| 1778186665 | 21.67° C | 58% | 1017.3 hPa | 0 mm | - | 324 W/m² | - |
| 1778186362 | 22.22° C | 56% | 1017.1 hPa | 0 mm | - | 325 W/m² | - |
| 1778186060 | 22.22° C | 57% | 1017.1 hPa | 0 mm | - | 562 W/m² | - |
| 1778185756 | 21.67° C | 57% | 1017 hPa | 0 mm | - | 491 W/m² | - |
| 1778185453 | 21.67° C | 57% | 1017.1 hPa | 0 mm | - | 429 W/m² | - |
| 1778185148 | 21.67° C | 56% | 1017.1 hPa | 0 mm | - | 464 W/m² | - |
| 1778184844 | 21.67° C | 56% | 1017 hPa | 0 mm | - | 448 W/m² | - |
| 1778184541 | 21.67° C | 57% | 1017.3 hPa | 0 mm | - | 439 W/m² | - |
| 1778184237 | 21.67° C | 57% | 1017.3 hPa | 0 mm | - | 321 W/m² | - |
| 1778183933 | 21.67° C | 56% | 1017.6 hPa | 0 mm | - | 114 W/m² | - |
| 1778183630 | 21.67° C | 55% | 1017.8 hPa | 0 mm | - | 442 W/m² | - |
| 1778183328 | 21.67° C | 58% | 1017.8 hPa | 0 mm | - | 443 W/m² | - |
| 1778183024 | 22.22° C | 55% | 1017.6 hPa | 0 mm | - | 385 W/m² | - |
| 1778182720 | 22.22° C | 54% | 1018.1 hPa | 0 mm | - | 615 W/m² | - |
* Rain latest hour (hover to see other rain measurements)
** Current wind speed in m/s (hover to see current wind gust speed)